Погода в Стародубском

Россия / Ставропольский край     44°33′59″N   44°01′35″E
темп.,
°C
ветер,
м/с
пор.,
м/с
влажн.,
%
обл.,
%
осадки,
мм/ч
давл.,
гПа
погр.,
м
29 июля, чт
чт2900:00+16ююз34790 0.0 101760
03:00+16юз22800 0.0 101511
06:00+18з00730 0.0 101626
09:00+25юв34440 0.0 1015631
12:00+30вюв57280 0.0 10142067
15:00+31юв67240 0.0 10122501
18:00+30вюв35270 0.0 1011368
21:00+24юв48360 0.0 1012132
30 июля, пт
пт3000:00+21ю33400 0.0 101233
03:00+19в11420 0.0 101211
06:00+20в25460 0.0 101298
09:00+27в69360 0.0 1012899
12:00+31вюв78270 0.0 10111844
15:00+33юв67230 0.0 10092315
18:00+32юв46260 0.0 1008464
21:00+25в51238100 0.0 1010309
31 июля, сб
сб3100:00+22юв384681 0.0 1010157
03:00+20ю1156100 0.0 101011
06:00+21вюв115897 0.0 101018
09:00+27св2340100 0.0 1010643
12:00+32св343158 0.0 10091620
15:00+34ссв33273 0.0 10082309
18:00+33всв11290 0.0 10082046
21:00+27юв22420 0.0 100923
1 августа, вс
вс100:00+24ююв23450 0.0 100932
03:00+23ююз11490 0.0 100911
06:00+23юз11512 0.0 101119
09:00+30юв01350 0.0 1011514
12:00+35в45240 0.0 10102218
15:00+36вюв45230 0.0 10082785
18:00+35юв45250 0.0 1008789
21:00+28всв33310 0.0 100931
2 августа, пн
пн200:00+25юв33410 0.0 100946
03:00+23всв22480 0.0 100911
06:00+23в24520 0.0 101089
09:00+30в33350 0.0 1010677
12:00+35в33260 0.0 10091639
15:00+36вюв23230 0.0 10072862
18:00+36ююз12254 0.0 10071126
21:00+30в333571 0.1 100839